#timestamp,LO_Frequency,Hit,StdDev 
1566108015.8,286047000.2,N
1566108035.6,286047000.0,N
1566108055.5,286047000.2,N
1566108075.3,286047001.1,N
1566108095.1,286047000.9,N
1566108115.9,286047001.0,N
1566108135.7,286047000.4,N
1566108155.6,286047001.1,N
1566108175.4,286046998.2,N
1566108195.2,286046998.3,N
1566108215.1,286047000.5,N
1566108216.0,286047000.5,N
1566108235.8,286047002.7,N
1566108255.7,286047000.1,N
1566108275.5,286047000.1,N
1566108295.3,286047002.8,N
1566108315.2,286047000.8,N
1566108335.0,286047000.2,N
1566108335.9,286047000.2,N
1566108355.8,286047000.6,N
1566108375.6,286047000.7,N
1566108395.4,286047000.3,N
1566108415.3,286047000.8,N
1566108435.1,286047000.1,N
1566108455.8,286047002.5,N
1566108475.7,286047000.9,N
1566108495.5,286047000.3,N
1566108515.4,286047000.7,N
1566108535.2,286047002.4,N
1566108555.0,286046999.7,N
1566108555.9,286046999.7,N
1566108575.8,286047002.8,N
1566108595.6,286047002.3,N
1566108615.5,286047002.5,N
1566108635.3,286047001.6,N
1566108655.3,286047002.2,N
1566108675.2,286047002.5,N
1566108695.9,286047002.1,N
1566108715.7,286047002.2,N
1566108735.6,286047001.9,N
1566108755.4,286047001.8,N
1566108775.3,286047003.8,Y
1566108795.1,286047002.8,P
1566108815.8,286047002.2,N
1566108835.7,286047001.4,N
1566108855.5,286047001.9,Y
1566108875.4,286047000.8,P
1566108895.2,286046998.2,P
1566108915.0,286046998.3,N
1566108915.9,286046998.3,N
1566108935.8,286046998.8,N
1566108955.6,286046998.5,N
1566108975.4,286047000.4,N
1566108995.3,286047000.9,N
1566109015.1,286047000.5,N
1566109035.9,286047000.6,N
1566109055.7,286046999.9,N
1566109075.5,286047000.1,N
1566109095.4,286047001.1,N
1566109115.2,286047000.3,N
1566109135.1,286047000.1,N
1566109136.0,286047000.1,N
1566109155.8,286046998.1,N
1566109175.6,286047000.4,N
1566109195.5,286047000.7,N
1566109215.3,286046998.5,N
1566109235.1,286046998.5,N
1566109255.9,286047001.1,N
1566109275.7,286047000.9,N
1566109295.6,286047000.7,N
1566109315.4,286047000.9,N
1566109335.2,286047000.0,N
1566109355.1,286047000.7,N
1566109356.0,286047000.7,N
1566109375.8,286046998.5,N
1566109395.7,286047000.1,N
1566109415.5,286047001.1,N
1566109435.3,286047000.9,N
1566109455.2,286047002.3,N
1566109475.0,286047000.3,N
1566109475.9,286047000.3,N
1566109495.8,286047000.4,N
1566109515.6,286047000.2,N
1566109535.4,286047002.6,N
1566109555.3,286047000.0,N
1566109575.1,286047001.0,N
1566109595.8,286047000.7,N
1566109615.7,286046998.6,N
1566109635.5,286047001.1,N
1566109655.4,286047000.7,N
1566109675.2,286047001.1,N
1566109695.0,286047000.1,N
1566109695.9,286047000.1,N
1566109715.8,286047001.0,N
1566109735.6,286047000.5,N
1566109755.5,286046998.2,N
1566109775.3,286047001.0,N
1566109795.1,286047000.9,N
1566109815.9,286046999.8,N
1566109835.7,286047001.0,N
1566109855.6,286047002.8,Y
1566109875.4,286046999.0,P
1566109895.2,286046999.2,N
1566109915.1,286046998.8,N
1566109916.0,286046998.8,N
1566109935.8,286046998.4,N
1566109955.6,286047000.8,N
1566109975.5,286046998.7,N
1566109995.3,286046998.3,N
1566110015.2,286046998.1,N
1566110035.0,286047000.4,N
1566110035.9,286047000.4,N
1566110055.8,286047000.4,N
1566110075.6,286047002.7,N
1566110095.4,286047002.5,N
1566110115.3,286047002.5,N
1566110135.1,286046999.7,N
1566110155.8,286047001.5,N
1566110175.7,286047002.0,N
1566110195.5,286047002.2,N
1566110215.4,286047002.1,N
1566110235.2,286047002.1,N
1566110255.0,286047000.0,N
1566110255.9,286047000.0,N
1566110275.8,286047000.1,N
1566110295.6,286047000.7,N
1566110315.5,286047000.8,N
1566110335.3,286047000.6,N
1566110355.1,286047000.7,N
1566110375.9,286047000.5,N
1566110395.7,286046999.7,N
1566110415.5,286047001.2,N
1566110435.4,286046998.4,N
1566110455.2,286046998.2,N
1566110475.1,286047001.2,N
1566110476.0,286047001.2,N
1566110495.8,286046998.7,N
1566110515.6,286046998.6,N
1566110535.5,286047001.1,N
1566110555.3,286046999.4,N
1566110575.2,286046998.3,N
1566110595.9,286046998.5,N
1566110615.7,286046998.1,N
1566110635.6,286046999.0,N
1566110655.4,286046998.7,N
1566110675.2,286047001.1,N
1566110695.1,286047000.5,N
1566110696.0,286047000.5,N
1566110715.8,286047000.5,N
1566110735.7,286046998.9,N
1566110755.5,286047001.2,N
1566110775.3,286047000.6,N
1566110795.2,286046998.5,N
1566110815.0,286046998.5,N
1566110815.9,286046998.5,N
1566110835.8,286047000.8,N
1566110855.6,286046998.2,N
1566110875.4,286046998.7,N
1566110895.3,286047000.7,N
1566110915.1,286046999.4,N
1566110935.9,286046996.8,N
1566110955.7,286046996.5,N
1566110975.5,286046998.5,N
1566110995.4,286046999.4,N
1566111015.2,286046999.4,N
1566111035.0,286046997.0,N
1566111036.0,286046997.0,N
1566111055.8,286046997.0,N
1566111075.6,286046997.4,N
1566111095.5,286046997.4,N
1566111115.3,286046996.8,N
1566111135.2,286046995.0,Y
1566111155.9,286046997.7,P
1566111175.7,286046996.9,P
1566111195.6,286046996.7,P
1566111215.4,286046997.9,N
1566111235.3,286046998.0,N
1566111255.1,286046997.1,Y
1566111256.0,286046997.1,P
1566111275.8,286047001.2,P
1566111295.7,286047001.1,N
1566111315.5,286047001.2,N
1566111335.3,286047001.1,N
1566111355.2,286046998.3,N
1566111375.0,286046998.3,N
1566111375.9,286046998.3,N
1566111425.8,286047000.9,E
1566111435.7,286046998.2,N
1566111455.6,286046998.8,P
1566111475.4,286046998.8,P
1566111495.2,286046998.4,Y
1566111515.1,286046998.3,P
1566111516.0,286046998.3,P
1566111535.8,286046998.1,P
1566111555.7,286047000.7,Y
1566111575.5,286047001.9,P
1566111595.3,286047001.3,N
